TimeEDT,TemperatureF,Dew PointF,Humidity,Sea Level PressureIn,VisibilityMPH,Wind Direction,Wind SpeedMPH,Gust SpeedMPH,PrecipitationIn,Events,Conditions,WindDirDegrees,DateUTC
12:45 AM,57.2,55.4,94,29.94,5.0,Calm,Calm,-,N/A,,Partly Cloudy,0,2013-08-28 04:45:00
12:52 AM,60.1,57.9,93,29.93,7.0,Calm,Calm,-,N/A,,Scattered Clouds,0,2013-08-28 04:52:00
1:10 AM,57.2,55.4,94,29.94,6.0,Calm,Calm,-,N/A,,Mostly Cloudy,0,2013-08-28 05:10:00
1:18 AM,57.2,55.4,94,29.94,7.0,Calm,Calm,-,N/A,,Mostly Cloudy,0,2013-08-28 05:18:00
1:22 AM,57.2,55.4,94,29.94,1.0,Calm,Calm,-,N/A,,Mist,0,2013-08-28 05:22:00
1:26 AM,57.2,57.2,100,29.94,0.2,Calm,Calm,-,N/A,Fog,Fog,0,2013-08-28 05:26:00
1:52 AM,59.0,59.0,100,29.92,0.2,Calm,Calm,-,N/A,Fog,Fog,0,2013-08-28 05:52:00
2:41 AM,59.0,57.2,94,29.93,0.5,Calm,Calm,-,N/A,Fog,Fog,0,2013-08-28 06:41:00
2:52 AM,57.9,57.9,100,29.92,0.2,Calm,Calm,-,N/A,Fog,Fog,0,2013-08-28 06:52:00
3:52 AM,57.9,57.9,100,29.92,0.2,Calm,Calm,-,N/A,Fog,Fog,0,2013-08-28 07:52:00
4:49 AM,57.2,57.2,100,29.93,0.2,Calm,Calm,-,N/A,Fog,Fog,0,2013-08-28 08:49:00
4:52 AM,57.0,57.0,100,29.92,0.2,Calm,Calm,-,N/A,Fog,Fog,0,2013-08-28 08:52:00
5:05 AM,57.2,57.2,100,29.93,0.2,Calm,Calm,-,N/A,Fog,Fog,0,2013-08-28 09:05:00
5:52 AM,57.9,57.9,100,29.93,0.2,Calm,Calm,-,N/A,Fog,Fog,0,2013-08-28 09:52:00
6:52 AM,57.9,57.9,100,29.95,0.2,Calm,Calm,-,N/A,Fog,Fog,0,2013-08-28 10:52:00
7:41 AM,59.0,59.0,100,29.95,0.8,Calm,Calm,-,N/A,,Overcast,0,2013-08-28 11:41:00
7:45 AM,60.8,59.0,94,29.95,1.5,Calm,Calm,-,N/A,,Overcast,0,2013-08-28 11:45:00
7:52 AM,60.1,59.0,96,29.95,1.8,Calm,Calm,-,N/A,,Overcast,0,2013-08-28 11:52:00
7:58 AM,60.8,59.0,94,29.95,3.0,Calm,Calm,-,N/A,,Overcast,0,2013-08-28 11:58:00
8:11 AM,60.8,60.8,100,29.95,1.8,Calm,Calm,-,N/A,,Overcast,0,2013-08-28 12:11:00
8:17 AM,60.8,60.8,100,29.95,0.8,Calm,Calm,-,N/A,,Overcast,0,2013-08-28 12:17:00
8:29 AM,60.8,60.8,100,29.95,1.5,Calm,Calm,-,N/A,,Overcast,0,2013-08-28 12:29:00
8:34 AM,60.8,60.8,100,29.95,3.0,Calm,Calm,-,N/A,,Overcast,0,2013-08-28 12:34:00
8:52 AM,61.0,61.0,100,29.96,3.0,Calm,Calm,-,N/A,,Overcast,0,2013-08-28 12:52:00
9:21 AM,64.4,62.6,94,29.95,6.0,Calm,Calm,-,N/A,,Overcast,0,2013-08-28 13:21:00
9:52 AM,66.9,63.0,87,29.96,10.0,Calm,Calm,-,N/A,,Overcast,0,2013-08-28 13:52:00
10:52 AM,73.9,64.9,73,29.95,10.0,North,3.5,-,N/A,,Overcast,360,2013-08-28 14:52:00
11:52 AM,79.0,63.0,58,29.92,10.0,West,3.5,-,N/A,,Clear,270,2013-08-28 15:52:00
12:52 PM,82.0,64.0,54,29.91,10.0,Calm,Calm,-,N/A,,Partly Cloudy,0,2013-08-28 16:52:00
1:52 PM,82.9,62.1,49,29.90,10.0,Calm,Calm,-,N/A,,Scattered Clouds,0,2013-08-28 17:52:00
2:52 PM,84.0,62.1,47,29.88,10.0,Calm,Calm,-,N/A,,Partly Cloudy,0,2013-08-28 18:52:00
3:14 PM,86.0,59.0,40,29.89,10.0,Calm,Calm,-,N/A,Thunderstorm,Partly Cloudy,0,2013-08-28 19:14:00
3:52 PM,75.9,64.0,67,29.91,10.0,North,9.2,19.6,N/A,Thunderstorm,Thunderstorm,10,2013-08-28 19:52:00
4:52 PM,75.9,64.0,67,29.91,10.0,Calm,Calm,-,N/A,Thunderstorm,Clear,0,2013-08-28 20:52:00
5:07 PM,77.0,64.4,65,29.92,10.0,Calm,Calm,-,N/A,,Clear,0,2013-08-28 21:07:00
5:52 PM,75.0,66.0,73,29.94,10.0,Calm,Calm,-,N/A,,Partly Cloudy,0,2013-08-28 21:52:00
6:52 PM,72.0,64.9,78,29.94,10.0,Calm,Calm,-,N/A,,Partly Cloudy,0,2013-08-28 22:52:00
7:52 PM,69.1,64.9,87,29.97,10.0,Calm,Calm,-,N/A,,Scattered Clouds,0,2013-08-28 23:52:00
8:44 PM,69.8,64.4,83,30.02,10.0,ESE,5.8,17.3,N/A,,Overcast,120,2013-08-29 00:44:00
8:52 PM,68.0,64.0,87,30.02,3.0,SE,8.1,-,0.06,Rain,Heavy Rain,130,2013-08-29 00:52:00
9:08 PM,66.2,64.4,94,30.02,8.0,SSE,3.5,-,0.01,Rain,Light Rain,150,2013-08-29 01:08:00
9:52 PM,66.0,64.0,93,30.03,10.0,SE,4.6,-,0.01,,Mostly Cloudy,140,2013-08-29 01:52:00
10:02 PM,66.2,64.4,94,30.03,10.0,NE,3.5,-,N/A,,Mostly Cloudy,40,2013-08-29 02:02:00
10:52 PM,66.0,64.0,93,30.02,10.0,Calm,Calm,-,N/A,,Overcast,0,2013-08-29 02:52:00
11:36 PM,64.4,62.6,94,30.03,10.0,Calm,Calm,-,N/A,,Mostly Cloudy,0,2013-08-29 03:36:00
11:52 PM,63.0,62.1,97,30.02,10.0,Calm,Calm,-,N/A,,Partly Cloudy,0,2013-08-29 03:52:00